Location: Deuil
(48.9767°N, 2.3272°E)
Time: 10:36:10
(UTC+00:00)

Cosmos 2344 - Pass Details

Date: 24 October 2021
Orbit: 1233 x 3009 km, 63.3° (Epoch: 30 November)

Event Time Altitude Azimuth Distance (km) Brightness Sun altitude
Rises 18:38:02 0° 317° (NW) 4,484 7.2 -19.4°
Reaches altitude 10° 18:40:36 10° 317° (NW) 3,634 6.6 -19.8°
Maximum altitude 18:49:38 81° 232° (SW) 1,851 4.4 -21.3°
Drops below altitude 10° 19:02:21 10° 148° (SSE) 4,968 6.3 -23.4°
Enters shadow 19:04:04 - 148° (SSE) 5,488 6.5 -23.6°
